User: anonymous   Login
Location: New Plymouth
(39.0670°S, 174.0830°E)
Time: 11:16:26
(UTC+13:00)
Language:

Cosmos 1763 Rocket - Orbit

View from above orbital plane
View from above orbital plane
View from above satellite
View from above satellite

Ground track
Ground track

The orbit data is extracted from the following two-line orbital elements,

1 16864U 86052B   19320.17528254  .00000015  00000-0  12926-4 0  9995
2 16864  74.0287 262.0374 0032286 143.3323 217.0050 14.40558993749923
Epoch (UTC): 16 November 2019 04:12:24
Eccentricity: 0.0032286
inclination: 74.0287°
perigee height: 733 km
apogee height: 779 km
right ascension of ascending node: 262.0374°
argument of perigee: 143.3323°
revolutions per day: 14.40558993
mean anomaly at epoch: 217.0050°
orbit number at epoch: 74992

The dashed part of the orbit path shows where the satellite is in the earth's shadow,  

DLR